Year,Month,Day,Hour,Minute,Value (Times are PST for temperature in C)
2018,04,27,00,00,16.20
2018,04,27,00,01,16.20
2018,04,27,00,02,16.10
2018,04,27,00,03,16.10
2018,04,27,00,04,16.00
2018,04,27,00,05,15.90
2018,04,27,00,06,15.90
2018,04,27,00,07,15.80
2018,04,27,00,08,15.80
2018,04,27,00,09,15.70
2018,04,27,00,10,15.60
2018,04,27,00,11,15.60
2018,04,27,00,12,15.50
2018,04,27,00,13,15.50
2018,04,27,00,14,15.40
2018,04,27,00,15,15.40
2018,04,27,00,16,15.30
2018,04,27,00,17,15.30
2018,04,27,00,18,15.20
2018,04,27,00,19,15.20
2018,04,27,00,20,15.10
2018,04,27,00,21,15.10
2018,04,27,00,22,15.00
2018,04,27,00,23,15.00
2018,04,27,00,24,14.90
2018,04,27,00,25,14.90
2018,04,27,00,26,14.80
2018,04,27,00,27,14.80
2018,04,27,00,28,14.80
2018,04,27,00,29,14.80
2018,04,27,00,30,14.80
2018,04,27,00,31,15.00
2018,04,27,00,32,15.10
2018,04,27,00,33,15.30
2018,04,27,00,34,15.50
2018,04,27,00,35,15.60
2018,04,27,00,36,15.80
2018,04,27,00,37,15.90
2018,04,27,00,38,15.90
2018,04,27,00,39,15.90
2018,04,27,00,40,15.80
2018,04,27,00,41,15.70
2018,04,27,00,42,15.60
2018,04,27,00,43,15.50
2018,04,27,00,44,15.40
2018,04,27,00,45,15.40
2018,04,27,00,46,15.30
2018,04,27,00,47,15.20
2018,04,27,00,48,15.20
2018,04,27,00,49,15.10
2018,04,27,00,50,15.10
2018,04,27,00,51,15.10
2018,04,27,00,52,15.10
2018,04,27,00,53,15.10
2018,04,27,00,54,15.10
2018,04,27,00,55,15.10
2018,04,27,00,56,15.20
2018,04,27,00,57,15.20
2018,04,27,00,58,15.10
2018,04,27,00,59,15.10
2018,04,27,01,00,15.10
2018,04,27,01,01,15.10
2018,04,27,01,02,15.20
2018,04,27,01,03,15.30
2018,04,27,01,04,15.30
2018,04,27,01,05,15.40
2018,04,27,01,06,15.40
2018,04,27,01,07,15.40
2018,04,27,01,08,15.40
2018,04,27,01,09,15.40
2018,04,27,01,10,15.40
2018,04,27,01,11,15.40
2018,04,27,01,12,15.30
2018,04,27,01,13,15.20
2018,04,27,01,14,15.20
2018,04,27,01,15,15.20
2018,04,27,01,16,15.10
2018,04,27,01,17,15.20
2018,04,27,01,18,15.20
2018,04,27,01,19,15.20
2018,04,27,01,20,15.20
2018,04,27,01,21,15.20
2018,04,27,01,22,15.20
2018,04,27,01,23,15.20
2018,04,27,01,24,15.20
2018,04,27,01,25,15.30
2018,04,27,01,26,15.30
2018,04,27,01,27,15.30
2018,04,27,01,28,15.30
2018,04,27,01,29,15.30
2018,04,27,01,30,15.30
2018,04,27,01,31,15.30
2018,04,27,01,32,15.30
2018,04,27,01,33,15.30
2018,04,27,01,34,15.20
2018,04,27,01,35,15.20
2018,04,27,01,36,15.20
2018,04,27,01,37,15.10
2018,04,27,01,38,15.10
2018,04,27,01,39,15.20
2018,04,27,01,40,15.20
2018,04,27,01,41,15.20
2018,04,27,01,42,15.10
2018,04,27,01,43,15.10
2018,04,27,01,44,15.00
2018,04,27,01,45,15.00
2018,04,27,01,46,15.10
2018,04,27,01,47,15.10
2018,04,27,01,48,15.10
2018,04,27,01,49,15.20
2018,04,27,01,50,15.30
2018,04,27,01,51,15.30
2018,04,27,01,52,15.30
2018,04,27,01,53,15.30
2018,04,27,01,54,15.20
2018,04,27,01,55,15.20
2018,04,27,01,56,15.10
2018,04,27,01,57,15.00
2018,04,27,01,58,14.90
2018,04,27,01,59,14.80
2018,04,27,02,00,14.70
2018,04,27,02,01,14.60
2018,04,27,02,02,14.50
2018,04,27,02,03,14.40
2018,04,27,02,04,14.30
2018,04,27,02,05,14.30
2018,04,27,02,06,14.20
2018,04,27,02,07,14.20
2018,04,27,02,08,14.20
2018,04,27,02,09,14.30
2018,04,27,02,10,14.30
2018,04,27,02,11,14.30
2018,04,27,02,12,14.30
2018,04,27,02,13,14.30
2018,04,27,02,14,14.30
2018,04,27,02,15,14.30
2018,04,27,02,16,14.30
2018,04,27,02,17,14.30
2018,04,27,02,18,14.30
2018,04,27,02,19,14.30
2018,04,27,02,20,14.30
2018,04,27,02,21,14.30
2018,04,27,02,22,14.30
2018,04,27,02,23,14.30
2018,04,27,02,24,14.30
2018,04,27,02,25,14.30
2018,04,27,02,26,14.30
2018,04,27,02,27,14.30
2018,04,27,02,28,14.20
2018,04,27,02,29,14.20
2018,04,27,02,30,14.20
2018,04,27,02,31,14.10
2018,04,27,02,32,14.10
2018,04,27,02,33,14.10
2018,04,27,02,34,14.10
2018,04,27,02,35,14.10
2018,04,27,02,36,14.10
2018,04,27,02,37,14.10
2018,04,27,02,38,14.10
2018,04,27,02,39,14.20
2018,04,27,02,40,14.30
2018,04,27,02,41,14.30
2018,04,27,02,42,14.30
2018,04,27,02,43,14.30
2018,04,27,02,44,14.30
2018,04,27,02,45,14.20
2018,04,27,02,46,14.20
2018,04,27,02,47,14.10
2018,04,27,02,48,14.00
2018,04,27,02,49,14.00
2018,04,27,02,50,14.00
2018,04,27,02,51,13.90
2018,04,27,02,52,13.90
2018,04,27,02,53,13.90
2018,04,27,02,54,13.80
2018,04,27,02,55,13.80
2018,04,27,02,56,13.80
2018,04,27,02,57,13.80
2018,04,27,02,58,13.80
2018,04,27,02,59,13.80
2018,04,27,03,00,13.80
2018,04,27,03,01,13.70
2018,04,27,03,02,13.70
2018,04,27,03,03,13.70
2018,04,27,03,04,13.60
2018,04,27,03,05,13.60
2018,04,27,03,06,13.60
2018,04,27,03,07,13.70
2018,04,27,03,08,13.70
2018,04,27,03,09,13.70
2018,04,27,03,10,13.70
2018,04,27,03,11,13.70
2018,04,27,03,12,13.70
2018,04,27,03,13,13.70
2018,04,27,03,14,13.70
2018,04,27,03,15,13.70
2018,04,27,03,16,13.70
2018,04,27,03,17,13.70
2018,04,27,03,18,13.70
2018,04,27,03,19,13.60
2018,04,27,03,20,13.60
2018,04,27,03,21,13.60
2018,04,27,03,22,13.50
2018,04,27,03,23,13.40
2018,04,27,03,24,13.40
2018,04,27,03,25,13.50
2018,04,27,03,26,13.60
2018,04,27,03,27,13.70
2018,04,27,03,28,13.80
2018,04,27,03,29,13.80
2018,04,27,03,30,13.90
2018,04,27,03,31,13.90
2018,04,27,03,32,13.90
2018,04,27,03,33,14.00
2018,04,27,03,34,14.00
2018,04,27,03,35,14.00
2018,04,27,03,36,14.00
2018,04,27,03,37,14.00
2018,04,27,03,38,14.00
2018,04,27,03,39,14.00
2018,04,27,03,40,14.00
2018,04,27,03,41,14.10
2018,04,27,03,42,14.10
2018,04,27,03,43,14.10
2018,04,27,03,44,14.10
2018,04,27,03,45,14.20
2018,04,27,03,46,14.20
2018,04,27,03,47,14.20
2018,04,27,03,48,14.20
2018,04,27,03,49,14.20
2018,04,27,03,50,14.20
2018,04,27,03,51,14.20
2018,04,27,03,52,14.20
2018,04,27,03,53,14.20
2018,04,27,03,54,14.20
2018,04,27,03,55,14.20
2018,04,27,03,56,14.20
2018,04,27,03,57,14.20
2018,04,27,03,58,14.10
2018,04,27,03,59,14.10
2018,04,27,04,00,14.10
2018,04,27,04,01,14.00
2018,04,27,04,02,14.00
2018,04,27,04,03,14.00
2018,04,27,04,04,14.00
2018,04,27,04,05,14.00
2018,04,27,04,06,13.90
2018,04,27,04,07,13.90
2018,04,27,04,08,13.80
2018,04,27,04,09,13.80
2018,04,27,04,10,13.80
2018,04,27,04,11,13.80
2018,04,27,04,12,13.80
2018,04,27,04,13,13.80
2018,04,27,04,14,13.80
2018,04,27,04,15,13.80
2018,04,27,04,16,13.70
2018,04,27,04,17,13.70
2018,04,27,04,18,13.70
2018,04,27,04,19,13.70
2018,04,27,04,20,13.70
2018,04,27,04,21,13.60
2018,04,27,04,22,13.60
2018,04,27,04,23,13.50
2018,04,27,04,24,13.50
2018,04,27,04,25,13.40
2018,04,27,04,26,13.40
2018,04,27,04,27,13.30
2018,04,27,04,28,13.30
2018,04,27,04,29,13.20
2018,04,27,04,30,13.20
2018,04,27,04,31,13.20
2018,04,27,04,32,13.20
2018,04,27,04,33,13.10
2018,04,27,04,34,13.00
2018,04,27,04,35,12.90
2018,04,27,04,36,12.80
2018,04,27,04,37,12.80
2018,04,27,04,38,12.80
2018,04,27,04,39,12.70
2018,04,27,04,40,12.70
2018,04,27,04,41,12.70
2018,04,27,04,42,12.60
2018,04,27,04,43,12.60
2018,04,27,04,44,12.60
2018,04,27,04,45,12.50
2018,04,27,04,46,12.60
2018,04,27,04,47,12.60
2018,04,27,04,48,12.70
2018,04,27,04,49,12.70
2018,04,27,04,50,12.60
2018,04,27,04,51,12.60
2018,04,27,04,52,12.60
2018,04,27,04,53,12.60
2018,04,27,04,54,12.60
2018,04,27,04,55,12.70
2018,04,27,04,56,12.70
2018,04,27,04,57,12.80
2018,04,27,04,58,12.80
2018,04,27,04,59,12.80
2018,04,27,05,00,12.90
2018,04,27,05,01,12.90
2018,04,27,05,02,13.00
2018,04,27,05,03,13.00
2018,04,27,05,04,13.10
2018,04,27,05,05,13.10
2018,04,27,05,06,13.10
2018,04,27,05,07,13.10
2018,04,27,05,08,13.20
2018,04,27,05,09,13.20
2018,04,27,05,10,13.20
2018,04,27,05,11,13.30
2018,04,27,05,12,13.30
2018,04,27,05,13,13.30
2018,04,27,05,14,13.30
2018,04,27,05,15,13.30
2018,04,27,05,16,13.30
2018,04,27,05,17,13.30
2018,04,27,05,18,13.30
2018,04,27,05,19,13.30
2018,04,27,05,20,13.30
2018,04,27,05,21,13.30
2018,04,27,05,22,13.30
2018,04,27,05,23,13.20
2018,04,27,05,24,13.10
2018,04,27,05,25,13.10
2018,04,27,05,26,13.10
2018,04,27,05,27,13.10
2018,04,27,05,28,13.00
2018,04,27,05,29,13.00
2018,04,27,05,30,12.90
2018,04,27,05,31,12.90
2018,04,27,05,32,12.90
2018,04,27,05,33,13.00
2018,04,27,05,34,12.90
2018,04,27,05,35,12.90
2018,04,27,05,36,13.00
2018,04,27,05,37,13.00
2018,04,27,05,38,13.00
2018,04,27,05,39,13.00
2018,04,27,05,40,13.00
2018,04,27,05,41,13.00
2018,04,27,05,42,12.90
2018,04,27,05,43,12.90
2018,04,27,05,44,12.90
2018,04,27,05,45,12.80
2018,04,27,05,46,12.80
2018,04,27,05,47,12.80
2018,04,27,05,48,12.80
2018,04,27,05,49,12.80
2018,04,27,05,50,12.70
2018,04,27,05,51,12.70
2018,04,27,05,52,12.70
2018,04,27,05,53,12.70
2018,04,27,05,54,12.70
2018,04,27,05,55,12.60
2018,04,27,05,56,12.60
2018,04,27,05,57,12.50
2018,04,27,05,58,12.50
2018,04,27,05,59,12.40
2018,04,27,06,00,12.40
2018,04,27,06,01,12.40
2018,04,27,06,02,12.40
2018,04,27,06,03,12.30
2018,04,27,06,04,12.30
2018,04,27,06,05,12.40
2018,04,27,06,06,12.30
2018,04,27,06,07,12.30
2018,04,27,06,08,12.30
2018,04,27,06,09,12.30
2018,04,27,06,10,12.30
2018,04,27,06,11,12.30
2018,04,27,06,12,12.20
2018,04,27,06,13,12.20
2018,04,27,06,14,12.20
2018,04,27,06,15,12.20
2018,04,27,06,16,12.30
2018,04,27,06,17,12.30
2018,04,27,06,18,12.40
2018,04,27,06,19,12.40
2018,04,27,06,20,12.40
2018,04,27,06,21,12.40
2018,04,27,06,22,12.40
2018,04,27,06,23,12.40
2018,04,27,06,24,12.40
2018,04,27,06,25,12.40
2018,04,27,06,26,12.40
2018,04,27,06,27,12.40
2018,04,27,06,28,12.40
2018,04,27,06,29,12.50
2018,04,27,06,30,12.50
2018,04,27,06,31,12.50
2018,04,27,06,32,12.50
2018,04,27,06,33,12.50
2018,04,27,06,34,12.50
2018,04,27,06,35,12.40
2018,04,27,06,36,12.40
2018,04,27,06,37,12.30
2018,04,27,06,38,12.30
2018,04,27,06,39,12.30
2018,04,27,06,40,12.30
2018,04,27,06,41,12.30
2018,04,27,06,42,12.30
2018,04,27,06,43,12.30
2018,04,27,06,44,12.20
2018,04,27,06,45,12.20
2018,04,27,06,46,12.20
2018,04,27,06,47,12.20
2018,04,27,06,48,12.20
2018,04,27,06,49,12.20
2018,04,27,06,50,12.10
2018,04,27,06,51,12.10
2018,04,27,06,52,12.10
2018,04,27,06,53,12.00
2018,04,27,06,54,12.00
2018,04,27,06,55,12.00
2018,04,27,06,56,11.90
2018,04,27,06,57,11.90
2018,04,27,06,58,11.80
2018,04,27,06,59,11.70
2018,04,27,07,00,11.70
2018,04,27,07,01,11.60
2018,04,27,07,02,11.60
2018,04,27,07,03,11.50
2018,04,27,07,04,11.50
2018,04,27,07,05,11.40
2018,04,27,07,06,11.40
2018,04,27,07,07,11.40
2018,04,27,07,08,11.40
2018,04,27,07,09,11.40
2018,04,27,07,10,11.30
2018,04,27,07,11,11.40
2018,04,27,07,12,11.40
2018,04,27,07,13,11.50
2018,04,27,07,14,11.60
2018,04,27,07,15,11.60
2018,04,27,07,16,11.70
2018,04,27,07,17,11.70
2018,04,27,07,18,11.70
2018,04,27,07,19,11.70
2018,04,27,07,20,11.60
2018,04,27,07,21,11.60
2018,04,27,07,22,11.60
2018,04,27,07,23,11.70
2018,04,27,07,24,11.70
2018,04,27,07,25,11.70
2018,04,27,07,26,11.70
2018,04,27,07,27,11.80
2018,04,27,07,28,11.80
2018,04,27,07,29,11.80
2018,04,27,07,30,11.80
2018,04,27,07,31,11.80
2018,04,27,07,32,11.80
2018,04,27,07,33,11.80
2018,04,27,07,34,11.80
2018,04,27,07,35,11.70
2018,04,27,07,36,11.70
2018,04,27,07,37,11.80
2018,04,27,07,38,11.80
2018,04,27,07,39,11.80
2018,04,27,07,40,11.80
2018,04,27,07,41,11.90
2018,04,27,07,42,11.90
2018,04,27,07,43,12.00
2018,04,27,07,44,12.00
2018,04,27,07,45,12.10
2018,04,27,07,46,12.10
2018,04,27,07,47,12.10
2018,04,27,07,48,12.10
2018,04,27,07,49,12.20
2018,04,27,07,50,12.20
2018,04,27,07,51,12.30
2018,04,27,07,52,12.30
2018,04,27,07,53,12.40
2018,04,27,07,54,12.50
2018,04,27,07,55,12.60
2018,04,27,07,56,12.60
2018,04,27,07,57,12.70
2018,04,27,07,58,12.80
2018,04,27,07,59,12.80
2018,04,27,08,00,12.90
2018,04,27,08,01,13.00
2018,04,27,08,02,13.00
2018,04,27,08,03,13.10
2018,04,27,08,04,13.20
2018,04,27,08,05,13.20
2018,04,27,08,06,13.30
2018,04,27,08,07,13.30
2018,04,27,08,08,13.30
2018,04,27,08,09,13.40
2018,04,27,08,10,13.40
2018,04,27,08,11,13.40
2018,04,27,08,12,13.40
2018,04,27,08,13,13.50
2018,04,27,08,14,13.50
2018,04,27,08,15,13.50
2018,04,27,08,16,13.50
2018,04,27,08,17,13.50
2018,04,27,08,18,13.50
2018,04,27,08,19,13.60
2018,04,27,08,20,13.60
2018,04,27,08,21,13.70
2018,04,27,08,22,13.70
2018,04,27,08,23,13.80
2018,04,27,08,24,13.80
2018,04,27,08,25,13.90
2018,04,27,08,26,13.90
2018,04,27,08,27,14.00
2018,04,27,08,28,14.00
2018,04,27,08,29,14.10
2018,04,27,08,30,14.10
2018,04,27,08,31,14.10
2018,04,27,08,32,14.20
2018,04,27,08,33,14.20
2018,04,27,08,34,14.30
2018,04,27,08,35,14.40
2018,04,27,08,36,14.40
2018,04,27,08,37,14.50
2018,04,27,08,38,14.60
2018,04,27,08,39,14.60
2018,04,27,08,40,14.60
2018,04,27,08,41,14.60
2018,04,27,08,42,14.70
2018,04,27,08,43,14.70
2018,04,27,08,44,14.80
2018,04,27,08,45,14.90
2018,04,27,08,46,15.00
2018,04,27,08,47,15.00
2018,04,27,08,48,15.10
2018,04,27,08,49,15.20
2018,04,27,08,50,15.20
2018,04,27,08,51,15.30
2018,04,27,08,52,15.30
2018,04,27,08,53,15.40
2018,04,27,08,54,15.40
2018,04,27,08,55,15.50
2018,04,27,08,56,15.60
2018,04,27,08,57,15.60
2018,04,27,08,58,15.70
2018,04,27,08,59,15.80
2018,04,27,09,00,15.80
2018,04,27,09,01,15.90
2018,04,27,09,02,16.00
2018,04,27,09,03,16.00
2018,04,27,09,04,16.10
2018,04,27,09,05,16.10
2018,04,27,09,06,16.20
2018,04,27,09,07,16.30
2018,04,27,09,08,16.30
2018,04,27,09,09,16.40
2018,04,27,09,10,16.40
2018,04,27,09,11,16.50
2018,04,27,09,12,16.50
2018,04,27,09,13,16.50
2018,04,27,09,14,16.60
2018,04,27,09,15,16.60
2018,04,27,09,16,16.60
2018,04,27,09,17,16.70
2018,04,27,09,18,16.70
2018,04,27,09,19,16.70
2018,04,27,09,20,16.80
2018,04,27,09,21,16.80
2018,04,27,09,22,16.80
2018,04,27,09,23,16.90
2018,04,27,09,24,16.90
2018,04,27,09,25,16.90
2018,04,27,09,26,16.90
2018,04,27,09,27,16.90
2018,04,27,09,28,16.90
2018,04,27,09,29,16.90
2018,04,27,09,30,16.90
2018,04,27,09,31,16.90
2018,04,27,09,32,16.90
2018,04,27,09,33,16.90
2018,04,27,09,34,17.00
2018,04,27,09,35,17.10
2018,04,27,09,36,17.10
2018,04,27,09,37,17.20
2018,04,27,09,38,17.20
2018,04,27,09,39,17.20
2018,04,27,09,40,17.20
2018,04,27,09,41,17.20
2018,04,27,09,42,17.30
2018,04,27,09,43,17.30
2018,04,27,09,44,17.40
2018,04,27,09,45,17.40
2018,04,27,09,46,17.40
2018,04,27,09,47,17.30
2018,04,27,09,48,17.40
2018,04,27,09,49,17.40
2018,04,27,09,50,17.40
2018,04,27,09,51,17.40
2018,04,27,09,52,17.40
2018,04,27,09,53,17.40
2018,04,27,09,54,17.40
2018,04,27,09,55,17.40
2018,04,27,09,56,17.40
2018,04,27,09,57,17.30
2018,04,27,09,58,17.30
2018,04,27,09,59,17.30
2018,04,27,10,00,17.30
2018,04,27,10,01,17.30
2018,04,27,10,02,17.20
2018,04,27,10,03,17.20
2018,04,27,10,04,17.20
2018,04,27,10,05,17.20
2018,04,27,10,06,17.20
2018,04,27,10,07,17.20
2018,04,27,10,08,17.20
2018,04,27,10,09,17.20
2018,04,27,10,10,17.30
2018,04,27,10,11,17.30
2018,04,27,10,12,17.40
2018,04,27,10,13,17.50
2018,04,27,10,14,17.50
2018,04,27,10,15,17.60
2018,04,27,10,16,17.60
2018,04,27,10,17,17.60
2018,04,27,10,18,17.70
2018,04,27,10,19,17.70
2018,04,27,10,20,17.80
2018,04,27,10,21,17.80
2018,04,27,10,22,17.90
2018,04,27,10,23,17.90
2018,04,27,10,24,17.90
2018,04,27,10,25,18.00
2018,04,27,10,26,18.10
2018,04,27,10,27,18.10
2018,04,27,10,28,18.10
2018,04,27,10,29,18.10
2018,04,27,10,30,18.10
2018,04,27,10,31,18.10
2018,04,27,10,32,18.10
2018,04,27,10,33,18.10
2018,04,27,10,34,18.10
2018,04,27,10,35,18.20
2018,04,27,10,36,18.20
2018,04,27,10,37,18.30
2018,04,27,10,38,18.40
2018,04,27,10,39,18.50
2018,04,27,10,40,18.60
2018,04,27,10,41,18.70
2018,04,27,10,42,18.70
2018,04,27,10,43,18.80
2018,04,27,10,44,18.80
2018,04,27,10,45,18.90
2018,04,27,10,46,19.00
2018,04,27,10,47,19.00
2018,04,27,10,48,19.10
2018,04,27,10,49,19.10
2018,04,27,10,50,19.20
2018,04,27,10,51,19.20
2018,04,27,10,52,19.20
2018,04,27,10,53,19.20
2018,04,27,10,54,19.20
2018,04,27,10,55,19.20
2018,04,27,10,56,19.30
2018,04,27,10,57,19.30
2018,04,27,10,58,19.40
2018,04,27,10,59,19.50
2018,04,27,11,00,19.50
2018,04,27,11,01,19.60
2018,04,27,11,02,19.60
2018,04,27,11,03,19.70
2018,04,27,11,04,19.70
2018,04,27,11,05,19.70
2018,04,27,11,06,19.70
2018,04,27,11,07,19.70
2018,04,27,11,08,19.80
2018,04,27,11,09,19.80
2018,04,27,11,10,19.80
2018,04,27,11,11,19.70
2018,04,27,11,12,19.70
2018,04,27,11,13,19.70
2018,04,27,11,14,19.70
2018,04,27,11,15,19.80
2018,04,27,11,16,19.70
2018,04,27,11,17,19.70
2018,04,27,11,18,19.70
2018,04,27,11,19,19.70
2018,04,27,11,20,19.70
2018,04,27,11,21,19.80
2018,04,27,11,22,19.90
2018,04,27,11,23,20.00
2018,04,27,11,24,20.10
2018,04,27,11,25,20.20
2018,04,27,11,26,20.30
2018,04,27,11,27,20.30
2018,04,27,11,28,20.40
2018,04,27,11,29,20.40
2018,04,27,11,30,20.50
2018,04,27,11,31,20.60
2018,04,27,11,32,20.70
2018,04,27,11,33,20.90
2018,04,27,11,34,21.00
2018,04,27,11,35,21.10
2018,04,27,11,36,21.20
2018,04,27,11,37,21.30
2018,04,27,11,38,21.40
2018,04,27,11,39,21.30
2018,04,27,11,40,21.20
2018,04,27,11,41,21.20
2018,04,27,11,42,21.20
2018,04,27,11,43,21.20
2018,04,27,11,44,21.20
2018,04,27,11,45,21.20
2018,04,27,11,46,21.30
2018,04,27,11,47,21.30
2018,04,27,11,48,21.30
2018,04,27,11,49,21.30
2018,04,27,11,50,21.30
2018,04,27,11,51,21.30
2018,04,27,11,52,21.30
2018,04,27,11,53,21.20
2018,04,27,11,54,21.20
2018,04,27,11,55,21.20
2018,04,27,11,56,21.20
2018,04,27,11,57,21.10
2018,04,27,11,58,21.00
2018,04,27,11,59,20.90
2018,04,27,12,00,20.80
2018,04,27,12,01,20.70
2018,04,27,12,02,20.50
2018,04,27,12,03,20.50
2018,04,27,12,04,20.50
2018,04,27,12,05,20.50
2018,04,27,12,06,20.60
2018,04,27,12,07,20.80
2018,04,27,12,08,20.90
2018,04,27,12,09,21.10
2018,04,27,12,10,21.20
2018,04,27,12,11,21.30
2018,04,27,12,12,21.30
2018,04,27,12,13,21.30
2018,04,27,12,14,21.30
2018,04,27,12,15,21.30
2018,04,27,12,16,21.40
2018,04,27,12,17,21.50
2018,04,27,12,18,21.50
2018,04,27,12,19,21.60
2018,04,27,12,20,21.70
2018,04,27,12,21,21.70
2018,04,27,12,22,21.70
2018,04,27,12,23,21.70
2018,04,27,12,24,21.60
2018,04,27,12,25,21.70
2018,04,27,12,26,21.70
2018,04,27,12,27,21.80
2018,04,27,12,28,22.00
2018,04,27,12,29,22.10
2018,04,27,12,30,22.20
2018,04,27,12,31,22.20
2018,04,27,12,32,22.20
2018,04,27,12,33,22.30
2018,04,27,12,34,22.40
2018,04,27,12,35,22.50
2018,04,27,12,36,22.60
2018,04,27,12,37,22.60
2018,04,27,12,38,22.70
2018,04,27,12,39,22.70
2018,04,27,12,40,22.80
2018,04,27,12,41,22.70
2018,04,27,12,42,22.70
2018,04,27,12,43,22.70
2018,04,27,12,44,22.70
2018,04,27,12,45,22.70
2018,04,27,12,46,22.80
2018,04,27,12,47,22.90
2018,04,27,12,48,22.90
2018,04,27,12,49,23.00
2018,04,27,12,50,23.10
2018,04,27,12,51,23.10
2018,04,27,12,52,23.20
2018,04,27,12,53,23.20
2018,04,27,12,54,23.20
2018,04,27,12,55,23.20
2018,04,27,12,56,23.20
2018,04,27,12,57,23.30
2018,04,27,12,58,23.30
2018,04,27,12,59,23.40
2018,04,27,13,00,23.40
2018,04,27,13,01,23.50
2018,04,27,13,02,23.50
2018,04,27,13,03,23.60
2018,04,27,13,04,23.60
2018,04,27,13,05,23.70
2018,04,27,13,06,23.70
2018,04,27,13,07,23.70
2018,04,27,13,08,23.80
2018,04,27,13,09,23.90
2018,04,27,13,10,23.80
2018,04,27,13,11,23.80
2018,04,27,13,12,23.70
2018,04,27,13,13,23.60
2018,04,27,13,14,23.60
2018,04,27,13,15,23.50
2018,04,27,13,16,23.40
2018,04,27,13,17,23.40
2018,04,27,13,18,23.30
2018,04,27,13,19,23.30
2018,04,27,13,20,23.40
2018,04,27,13,21,23.50
2018,04,27,13,22,23.60
2018,04,27,13,23,23.60
2018,04,27,13,24,23.70
2018,04,27,13,25,23.80
2018,04,27,13,26,23.90
2018,04,27,13,27,23.90
2018,04,27,13,28,23.90
2018,04,27,13,29,23.90
2018,04,27,13,30,23.80
2018,04,27,13,31,23.80
2018,04,27,13,32,23.80
2018,04,27,13,33,23.80
2018,04,27,13,34,23.80
2018,04,27,13,35,23.80
2018,04,27,13,36,23.80
2018,04,27,13,37,23.80
2018,04,27,13,38,23.70
2018,04,27,13,39,23.70
2018,04,27,13,40,23.80
2018,04,27,13,41,23.80
2018,04,27,13,42,23.80
2018,04,27,13,43,23.90
2018,04,27,13,44,23.90
2018,04,27,13,45,24.00
2018,04,27,13,46,24.00
2018,04,27,13,47,24.00
2018,04,27,13,48,24.00
2018,04,27,13,49,23.90
2018,04,27,13,50,23.80
2018,04,27,13,51,23.70
2018,04,27,13,52,23.50
2018,04,27,13,53,23.40
2018,04,27,13,54,23.30
2018,04,27,13,55,23.20
2018,04,27,13,56,23.20
2018,04,27,13,57,23.20
2018,04,27,13,58,23.20
2018,04,27,13,59,23.10
2018,04,27,14,00,23.20
2018,04,27,14,01,23.30
2018,04,27,14,02,23.40
2018,04,27,14,03,23.60
2018,04,27,14,04,23.60
2018,04,27,14,05,23.70
2018,04,27,14,06,23.70
2018,04,27,14,07,23.80
2018,04,27,14,08,23.90
2018,04,27,14,09,23.90
2018,04,27,14,10,23.90
2018,04,27,14,11,23.80
2018,04,27,14,12,23.70
2018,04,27,14,13,23.50
2018,04,27,14,14,23.40
2018,04,27,14,15,23.40
2018,04,27,14,16,23.50
2018,04,27,14,17,23.40
2018,04,27,14,18,23.40
2018,04,27,14,19,23.40
2018,04,27,14,20,23.40
2018,04,27,14,21,23.40
2018,04,27,14,22,23.50
2018,04,27,14,23,23.50
2018,04,27,14,24,23.60
2018,04,27,14,25,23.60
2018,04,27,14,26,23.60
2018,04,27,14,27,23.70
2018,04,27,14,28,23.70
2018,04,27,14,29,23.70
2018,04,27,14,30,23.70
2018,04,27,14,31,23.60
2018,04,27,14,32,23.50
2018,04,27,14,33,23.40
2018,04,27,14,34,23.30
2018,04,27,14,35,23.40
2018,04,27,14,36,23.50
2018,04,27,14,37,23.50
2018,04,27,14,38,23.60
2018,04,27,14,39,23.60
2018,04,27,14,40,23.70
2018,04,27,14,41,23.90
2018,04,27,14,42,24.00
2018,04,27,14,43,24.10
2018,04,27,14,44,24.20
2018,04,27,14,45,24.20
2018,04,27,14,46,24.30
2018,04,27,14,47,24.30
2018,04,27,14,48,24.40
2018,04,27,14,49,24.50
2018,04,27,14,50,24.50
2018,04,27,14,51,24.50
2018,04,27,14,52,24.40
2018,04,27,14,53,24.20
2018,04,27,14,54,24.00
2018,04,27,14,55,23.80
2018,04,27,14,56,23.60
2018,04,27,14,57,23.50
2018,04,27,14,58,23.50
2018,04,27,14,59,23.40
2018,04,27,15,00,23.30
2018,04,27,15,01,23.30
2018,04,27,15,02,23.20
2018,04,27,15,03,23.10
2018,04,27,15,04,23.00
2018,04,27,15,05,22.90
2018,04,27,15,06,22.70
2018,04,27,15,07,22.50
2018,04,27,15,08,22.30
2018,04,27,15,09,22.20
2018,04,27,15,10,22.20
2018,04,27,15,11,22.30
2018,04,27,15,12,22.40
2018,04,27,15,13,22.40
2018,04,27,15,14,22.40
2018,04,27,15,15,22.40
2018,04,27,15,16,22.40
2018,04,27,15,17,22.40
2018,04,27,15,18,22.40
2018,04,27,15,19,22.50
2018,04,27,15,20,22.60
2018,04,27,15,21,22.70
2018,04,27,15,22,22.70
2018,04,27,15,23,22.80
2018,04,27,15,24,22.80
2018,04,27,15,25,22.80
2018,04,27,15,26,22.80
2018,04,27,15,27,22.80
2018,04,27,15,28,22.80
2018,04,27,15,29,22.90
2018,04,27,15,30,22.90
2018,04,27,15,31,22.80
2018,04,27,15,32,22.70
2018,04,27,15,33,22.60
2018,04,27,15,34,22.50
2018,04,27,15,35,22.50
2018,04,27,15,36,22.60
2018,04,27,15,37,22.50
2018,04,27,15,38,22.50
2018,04,27,15,39,22.40
2018,04,27,15,40,22.20
2018,04,27,15,41,22.00
2018,04,27,15,42,21.80
2018,04,27,15,43,21.60
2018,04,27,15,44,21.50
2018,04,27,15,45,21.40
2018,04,27,15,46,21.50
2018,04,27,15,47,21.50
2018,04,27,15,48,21.50
2018,04,27,15,49,21.60
2018,04,27,15,50,21.60
2018,04,27,15,51,21.60
2018,04,27,15,52,21.70
2018,04,27,15,53,21.70
2018,04,27,15,54,21.70
2018,04,27,15,55,21.70
2018,04,27,15,56,21.80
2018,04,27,15,57,21.80
2018,04,27,15,58,21.90
2018,04,27,15,59,21.90
2018,04,27,16,00,22.00
2018,04,27,16,01,22.00
2018,04,27,16,02,22.00
2018,04,27,16,03,21.90
2018,04,27,16,04,21.90
2018,04,27,16,05,21.80
2018,04,27,16,06,21.80
2018,04,27,16,07,21.90
2018,04,27,16,08,21.90
2018,04,27,16,09,22.00
2018,04,27,16,10,22.00
2018,04,27,16,11,22.00
2018,04,27,16,12,22.00
2018,04,27,16,13,21.90
2018,04,27,16,14,21.80
2018,04,27,16,15,21.60
2018,04,27,16,16,21.50
2018,04,27,16,17,21.40
2018,04,27,16,18,21.30
2018,04,27,16,19,21.20
2018,04,27,16,20,21.00
2018,04,27,16,21,20.90
2018,04,27,16,22,20.90
2018,04,27,16,23,20.80
2018,04,27,16,24,20.70
2018,04,27,16,25,20.70
2018,04,27,16,26,20.70
2018,04,27,16,27,20.60
2018,04,27,16,28,20.60
2018,04,27,16,29,20.60
2018,04,27,16,30,20.60
2018,04,27,16,31,20.60
2018,04,27,16,32,20.70
2018,04,27,16,33,20.70
2018,04,27,16,34,20.80
2018,04,27,16,35,20.80
2018,04,27,16,36,20.80
2018,04,27,16,37,20.80
2018,04,27,16,38,20.80
2018,04,27,16,39,20.80
2018,04,27,16,40,20.80
2018,04,27,16,41,20.80
2018,04,27,16,42,20.80
2018,04,27,16,43,20.80
2018,04,27,16,44,20.80
2018,04,27,16,45,20.80
2018,04,27,16,46,20.80
2018,04,27,16,47,20.80
2018,04,27,16,48,20.80
2018,04,27,16,49,20.80
2018,04,27,16,50,20.90
2018,04,27,16,51,20.90
2018,04,27,16,52,20.90
2018,04,27,16,53,20.90
2018,04,27,16,54,20.90
2018,04,27,16,55,20.90
2018,04,27,16,56,20.90
2018,04,27,16,57,20.80
2018,04,27,16,58,20.80
2018,04,27,16,59,20.70
2018,04,27,17,00,20.60
2018,04,27,17,01,20.50
2018,04,27,17,02,20.40
2018,04,27,17,03,20.30
2018,04,27,17,04,20.30
2018,04,27,17,05,20.30
2018,04,27,17,06,20.20
2018,04,27,17,07,20.10
2018,04,27,17,08,20.00
2018,04,27,17,09,19.80
2018,04,27,17,10,19.70
2018,04,27,17,11,19.60
2018,04,27,17,12,19.50
2018,04,27,17,13,19.40
2018,04,27,17,14,19.40
2018,04,27,17,15,19.40
2018,04,27,17,16,19.40
2018,04,27,17,17,19.40
2018,04,27,17,18,19.40
2018,04,27,17,19,19.50